QPF
0.00 0.00 0.00 0.00 0.00 0.00 0.00 0.00 0.00 0.00 0.00 0.00 0.00 0.00 0.00 0.00 0.00 0.00 0.00 0.00 0.00 0.00 0.00 0.00 0.00 0.00 0.00 0.00 0.00 0.00 0.00 0.00 0.00 0.00 0.00 0.00 0.00 0.00 0.00 0.00 0.00 0.00 0.00 0.00 0.00 0.00 0.00 0.00 0.00
0.00 0.00 0.00 0.00 0.00 0.00 0.00 0.00 0.00 0.00 0.00 0.00 0.00 0.00 0.00 0.00 0.00 0.00 0.00 0.00 0.00 0.00 0.00 0.00 0.00 0.00 0.00 0.00 0.00 0.00 0.00 0.00 0.00 0.00 0.00 0.00 0.00 0.00 0.00 0.00 0.00 0.00 0.00 0.00 0.00 0.00 0.00 0.00 0.00
0.00 0.00 0.00 0.00 0.00 0.00 0.00 0.00 0.00 0.00 0.00 0.00 0.00 0.00 0.00 0.00 0.00 0.00 0.00 0.00 0.00 0.00 0.00 0.00 0.00 0.00 0.00 0.00 0.00 0.00 0.00 0.00 0.00 0.00 0.00 0.00 0.00 0.00 0.00 0.00 0.00 0.00 0.00 0.00 0.00 0.00 0.00 0.00 0.00
0.00 0.00 0.00 0.00 0.00 0.00 0.00 0.00 0.00 0.00 0.00 0.00 0.00 0.00 0.00 0.00 0.00 0.00 0.00 0.00 0.00 0.00 0.00 0.00 0.00 0.00 0.00 0.00 0.00 0.00 0.00 0.00 0.00 0.00 0.00 0.00 0.00 0.00 0.00 0.00 0.00 0.00 0.00 0.00 0.00 0.00 0.00 0.00 0.00
0.00 0.00 0.00 0.00 0.00 0.00 0.00 0.00 0.00 0.00 0.00 0.00 0.00 0.00 0.00 0.00 0.00 0.00 0.00 0.00 0.00 0.00 0.00 0.00 0.00 0.00 0.00 0.00 0.00 0.00 0.00 0.00 0.00 0.00 0.00 0.00 0.00 0.00 0.00 0.00 0.00 0.00 0.00 0.00 0.00 0.00 0.00 0.00 0.00
0.00 0.00 0.00 0.00 0.00 0.00 0.00 0.00 0.00 0.00 0.00 0.00 0.00 0.00 0.00 0.00 0.00 0.00 0.00 0.00 0.00 0.00 0.00 0.00 0.00 0.00 0.00 0.00 0.00 0.00 0.00 0.00 0.00 0.00 0.00 0.00 0.00 0.00 0.00 0.00 0.00 0.00 0.00 0.00 0.00 0.00 0.00 0.00 0.00
0.00 0.00 0.00 0.00 0.00 0.00 0.00 0.00 0.00 0.00 0.00 0.00 0.00 0.00 0.00 0.00 0.00 0.00 0.00 0.00 0.00 0.00 0.00 0.00 0.00 0.00 0.00 0.00 0.00 0.00 0.00 0.00 0.00 0.00 0.00 0.00 0.00 0.00 0.00 0.00 0.00 0.00 0.00 0.00 0.00 0.00 0.00 0.00 0.00
0.00 0.00 0.00 0.00 0.00 0.00 0.00 0.00 0.00 0.00 0.00 0.00 0.00 0.00 0.00 0.00 0.00 0.00 0.00 0.00 0.00 0.00 0.00 0.00 0.00 0.00 0.00 0.00 0.00 0.00 0.00 0.00 0.00 0.00 0.00 0.00 0.00 0.00 0.00 0.00 0.00 0.00 0.00 0.00 0.00 0.00 0.00 0.00 0.00
0.00 0.00 0.00 0.00 0.00 0.00 0.00 0.00 0.00 0.00 0.00 0.00 0.00 0.00 0.00 0.00 0.00 0.00 0.00 0.00 0.00 0.00 0.00 0.00 0.00 0.00 0.00 0.00 0.00 0.00 0.00 0.00 0.00 0.00 0.00 0.00 0.00 0.00 0.00 0.00 0.00 0.00 0.00 0.00 0.00 0.00 0.00 0.00 0.00
0.00 0.00 0.00 0.00 0.00 0.00 0.00 0.00 0.00 0.00 0.00 0.00 0.00 0.00 0.00 0.00 0.00 0.00 0.00 0.00 0.00 0.00 0.00 0.00 0.00 0.00 0.00 0.00 0.00 0.00 0.00 0.00 0.00 0.00 0.00 0.00 0.00 0.00 0.00 0.00 0.00 0.00 0.00 0.00 0.00 0.00 0.00 0.00 0.00
0.00 0.00 0.00 0.00 0.00 0.00 0.00 0.00 0.00 0.00 0.00 0.00 0.00 0.00 0.00 0.00 0.00 0.00 0.00 0.00 0.00 0.00 0.00 0.00 0.00 0.00 0.00 0.00 0.00 0.00 0.00 0.00 0.00 0.00 0.00 0.00 0.00 0.00 0.00 0.00 0.00 0.00 0.00 0.00 0.00 0.00 0.00 0.00 0.00
0.00 0.00 0.00 0.00 0.00 0.00 0.00 0.00 0.00 0.00 0.00 0.00 0.00 0.00 0.00 0.00 0.00 0.00 0.00 0.00 0.00 0.00 0.00 0.00 0.00 0.00 0.00 0.00 0.00 0.00 0.00 0.00 0.00 0.00 0.00 0.00 0.00 0.00 0.00 0.00 0.00 0.00 0.00 0.00 0.00 0.00 0.00 0.00 0.00
0.00 0.00 0.00 0.00 0.00 0.00 0.00 0.00 0.00 0.00 0.00 0.00 0.00 0.00 0.00 0.00 0.00 0.00 0.00 0.00 0.00 0.00 0.00 0.00 0.00 0.00 0.00 0.00 0.00 0.00 0.00 0.00 0.00 0.00 0.00 0.00 0.00 0.00 0.00 0.00 0.00 0.00 0.00 0.00 0.00 0.00 0.00 0.00 0.00
0.00 0.00 0.00 0.00 0.00 0.00 0.00 0.00 0.00 0.00 0.00 0.00 0.00 0.00 0.00 0.00 0.00 0.00 0.00 0.00 0.00 0.00 0.00 0.00 0.00 0.00 0.00 0.00 0.00 0.00 0.00 0.00 0.00 0.00 0.00 0.00 0.00 0.00 0.00 0.00 0.00 0.00 0.00 0.00 0.00 0.00 0.00 0.00 0.00
0.00 0.00 0.00 0.00 0.00 0.00 0.00 0.00 0.00 0.00 0.00 0.00 0.00 0.00 0.00 0.00 0.00 0.00 0.00 0.00 0.00 0.00 0.00 0.00 0.00 0.00 0.00 0.00 0.00 0.00 0.00 0.00 0.00 0.00 0.00 0.00 0.00 0.00 0.00 0.00 0.00 0.00 0.00 0.00 0.00 0.00 0.00 0.00 0.00
0.00 0.00 0.00 0.00 0.00 0.00 0.00 0.00 0.00 0.00 0.00 0.00 0.00 0.00 0.00 0.00 0.00 0.00 0.00 0.00 0.00 0.00 0.00 0.00 0.00 0.00 0.00 0.00 0.00 0.00 0.00 0.00 0.00 0.00 0.00 0.00 0.00 0.00 0.00 0.00 0.00 0.00 0.00 0.00 0.00 0.00 0.00 0.00 0.00
0.00 0.00 0.00 0.00 0.00 0.00 0.00 0.00 0.00 0.00 0.00 0.00 0.00 0.00 0.00 0.00 0.00 0.00 0.00 0.00 0.00 0.00 0.00 0.00 0.00 0.00 0.00 0.00 0.00 0.00 0.00 0.00 0.00 0.00 0.00 0.00 0.00 0.00 0.00 0.00 0.00 0.00 0.00 0.00 0.00 0.00 0.00 0.00 0.00
0.00 0.00 0.00 0.00 0.00 0.00 0.00 0.00 0.00 0.00 0.00 0.00 0.00 0.00 0.00 0.00 0.00 0.00 0.00 0.00 0.00 0.00 0.00 0.00 0.00 0.00 0.00 0.00 0.00 0.00 0.00 0.00 0.00 0.00 0.00 0.00 0.00 0.00 0.00 0.00 0.00 0.00 0.00 0.00 0.00 0.00 0.00 0.00 0.00
0.00 0.00 0.00 0.00 0.00 0.00 0.00 0.00 0.00 0.00 0.00 0.00 0.00 0.00 0.00 0.00 0.00 0.00 0.00 0.00 0.00 0.00 0.00 0.00 0.00 0.00 0.00 0.00 0.00 0.00 0.00 0.00 0.00 0.00 0.00 0.00 0.00 0.00 0.00 0.00 0.00 0.00 0.00 0.00 0.00 0.00 0.00 0.00 0.00
0.00 0.00 0.00 0.00 0.00 0.00 0.00 0.00 0.00 0.00 0.00 0.00 0.00 0.00 0.00 0.00 0.00 0.00 0.00 0.00 0.00 0.00 0.00 0.00 0.00 0.00 0.00 0.00 0.00 0.00 0.00 0.00 0.00 0.00 0.00 0.00 0.00 0.00 0.00 0.00 0.00 0.00 0.00 0.00 0.00 0.00 0.00 0.00 0.00
0.00 0.00 0.00 0.00 0.00 0.00 0.00 0.00 0.00 0.00 0.00 0.00 0.00 0.00 0.00 0.00 0.00 0.00 0.00 0.00 0.00 0.00 0.00 0.00 0.00 0.00 0.00 0.00 0.00 0.00 0.00 0.00 0.00 0.00 0.00 0.00 0.00 0.00 0.00 0.00 0.00 0.00 0.00 0.00 0.00 0.00 0.00 0.00 0.00
0.00 0.00 0.00 0.00 0.00 0.00 0.00 0.00 0.00 0.00 0.00 0.00 0.00 0.00 0.00 0.00 0.00 0.00 0.00 0.00 0.00 0.00 0.00 0.00 0.00 0.00 0.00 0.00 0.00 0.00 0.00 0.00 0.00 0.00 0.00 0.00 0.00 0.00 0.00 0.00 0.00 0.00 0.00 0.00 0.00 0.00 0.00 0.00 0.00
0.00 0.00 0.00 0.00 0.00 0.00 0.00 0.00 0.00 0.00 0.00 0.00 0.00 0.00 0.00 0.00 0.00 0.00 0.00 0.00 0.00 0.00 0.00 0.00 0.00 0.00 0.00 0.00 0.00 0.00 0.00 0.00 0.00 0.00 0.00 0.00 0.00 0.00 0.00 0.00 0.00 0.00 0.00 0.00 0.00 0.00 0.00 0.00 0.00
0.00 0.00 0.00 0.00 0.00 0.00 0.00 0.00 0.00 0.00 0.00 0.00 0.00 0.00 0.00 0.00 0.00 0.00 0.00 0.00 0.00 0.00 0.00 0.00 0.00 0.00 0.00 0.00 0.00 0.00 0.00 0.00 0.00 0.00 0.00 0.00 0.00 0.00 0.00 0.00 0.00 0.00 0.00 0.00 0.00 0.00 0.00 0.00 0.00
0.00 0.00 0.00 0.00 0.00 0.00 0.00 0.00 0.00 0.00 0.00 0.00 0.00 0.00 0.00 0.00 0.00 0.00 0.00 0.00 0.00 0.00 0.00 0.00 0.00 0.00 0.00 0.00 0.00 0.00 0.00 0.00 0.00 0.00 0.00 0.00 0.00 0.00 0.00 0.00 0.00 0.00 0.00 0.00 0.00 0.00 0.00 0.00 0.00
0.00 0.00 0.00 0.00 0.00 0.00 0.00 0.00 0.00 0.00 0.00 0.00 0.00 0.00 0.00 0.00 0.00 0.00 0.00 0.00 0.00 0.00 0.00 0.00 0.00 0.00 0.00 0.00 0.00 0.00 0.00 0.00 0.00 0.00 0.00 0.00 0.00 0.00 0.00 0.00 0.00 0.00 0.00 0.00 0.00 0.00 0.00 0.00 0.00
0.00 0.00 0.00 0.00 0.00 0.00 0.00 0.00 0.00 0.00 0.00 0.00 0.00 0.00 0.00 0.00 0.00 0.00 0.00 0.00 0.00 0.00 0.00 0.00 0.00 0.00 0.00 0.00 0.00 0.00 0.00 0.00 0.00 0.00 0.00 0.00 0.00 0.00 0.00 0.00 0.00 0.00 0.00 0.00 0.00 0.00 0.00 0.00 0.00
0.00 0.00 0.00 0.00 0.00 0.00 0.00 0.00 0.00 0.00 0.00 0.00 0.00 0.00 0.00 0.00 0.00 0.00 0.00 0.00 0.00 0.00 0.00 0.00 0.00 0.00 0.00 0.00 0.00 0.00 0.00 0.00 0.00 0.00 0.00 0.00 0.00 0.00 0.00 0.00 0.00 0.00 0.00 0.00 0.00 0.00 0.00 0.00 0.00
0.00 0.00 0.00 0.00 0.00 0.00 0.00 0.00 0.00 0.00 0.00 0.00 0.00 0.00 0.00 0.00 0.00 0.00 0.00 0.00 0.00 0.00 0.00 0.00 0.00 0.00 0.00 0.00 0.00 0.00 0.00 0.00 0.00 0.00 0.00 0.00 0.00 0.00 0.00 0.00 0.00 0.00 0.00 0.00 0.00 0.00 0.00 0.00 0.00
0.00 0.00 0.00 0.00 0.00 0.00 0.00 0.00 0.00 0.00 0.00 0.00 0.00 0.00 0.00 0.00 0.00 0.00 0.00 0.00 0.00 0.00 0.00 0.00 0.00 0.00 0.00 0.00 0.00 0.00 0.00 0.00 0.00 0.00 0.00 0.00 0.00 0.00 0.00 0.00 0.00 0.00 0.00 0.00 0.00 0.00 0.00 0.00 0.00
MSLP
1015.24 1016.07 1017.10 1018.16 1019.08 1019.73 1020.02 1019.97 1019.62 1019.11 1018.56 1018.11 1017.83 1017.74 1017.81 1017.97 1018.13 1018.22 1018.23 1018.15 1018.05 1017.99 1018.03 1018.21 1018.54 1018.96 1019.43 1019.87 1020.23 1020.49 1020.65 1020.75 1020.84 1020.96 1021.14 1021.40 1021.69 1021.99 1022.25 1022.44 1022.53 1022.53 1022.48 1022.38 1022.29 1022.21 1022.16 1022.13 1022.11
1015.68 1016.69 1017.81 1018.86 1019.67 1020.12 1020.17 1019.84 1019.24 1018.52 1017.83 1017.29 1016.98 1016.91 1017.01 1017.21 1017.41 1017.54 1017.58 1017.54 1017.49 1017.49 1017.61 1017.88 1018.30 1018.83 1019.39 1019.91 1020.34 1020.65 1020.85 1020.98 1021.09 1021.23 1021.42 1021.67 1021.95 1022.24 1022.49 1022.67 1022.76 1022.78 1022.74 1022.66 1022.59 1022.53 1022.49 1022.47 1022.45
1016.19 1017.30 1018.43 1019.40 1020.04 1020.27 1020.07 1019.50 1018.69 1017.82 1017.05 1016.50 1016.22 1016.20 1016.37 1016.64 1016.88 1017.05 1017.12 1017.11 1017.09 1017.14 1017.32 1017.66 1018.15 1018.75 1019.37 1019.95 1020.43 1020.79 1021.03 1021.19 1021.32 1021.46 1021.65 1021.88 1022.14 1022.40 1022.61 1022.77 1022.85 1022.87 1022.84 1022.80 1022.76 1022.73 1022.73 1022.74 1022.75
1016.75 1017.88 1018.94 1019.76 1020.20 1020.19 1019.76 1019.00 1018.07 1017.13 1016.36 1015.86 1015.66 1015.73 1015.99 1016.31 1016.60 1016.80 1016.88 1016.90 1016.90 1016.99 1017.20 1017.58 1018.11 1018.74 1019.38 1019.98 1020.48 1020.85 1021.12 1021.30 1021.45 1021.61 1021.79 1022.01 1022.24 1022.46 1022.64 1022.77 1022.84 1022.86 1022.86 1022.85 1022.85 1022.88 1022.92 1022.97 1023.02
1017.32 1018.39 1019.32 1019.94 1020.16 1019.94 1019.33 1018.45 1017.46 1016.55 1015.86 1015.46 1015.38 1015.55 1015.88 1016.26 1016.58 1016.78 1016.87 1016.89 1016.91 1017.01 1017.25 1017.64 1018.17 1018.78 1019.41 1019.99 1020.47 1020.83 1021.10 1021.30 1021.47 1021.64 1021.84 1022.06 1022.28 1022.47 1022.63 1022.73 1022.79 1022.83 1022.85 1022.89 1022.94 1023.02 1023.12 1023.21 1023.30
1017.84 1018.79 1019.53 1019.94 1019.95 1019.55 1018.83 1017.91 1016.96 1016.14 1015.58 1015.33 1015.37 1015.64 1016.03 1016.43 1016.75 1016.94 1017.02 1017.03 1017.05 1017.16 1017.40 1017.78 1018.28 1018.85 1019.43 1019.95 1020.38 1020.72 1020.97 1021.18 1021.38 1021.59 1021.81 1022.05 1022.28 1022.47 1022.62 1022.72 1022.79 1022.83 1022.89 1022.97 1023.07 1023.20 1023.33 1023.46 1023.57
1018.24 1019.03 1019.57 1019.78 1019.60 1019.09 1018.33 1017.44 1016.60 1015.93 1015.54 1015.43 1015.59 1015.93 1016.34 1016.72 1017.00 1017.15 1017.20 1017.20 1017.23 1017.34 1017.58 1017.94 1018.41 1018.93 1019.43 1019.87 1020.24 1020.53 1020.76 1020.98 1021.21 1021.46 1021.74 1022.02 1022.28 1022.49 1022.65 1022.76 1022.84 1022.91 1022.99 1023.10 1023.23 1023.39 1023.55 1023.69 1023.81
1018.49 1019.10 1019.44 1019.47 1019.16 1018.59 1017.85 1017.06 1016.37 1015.88 1015.66 1015.69 1015.94 1016.30 1016.68 1017.01 1017.22 1017.31 1017.31 1017.30 1017.33 1017.46 1017.71 1018.07 1018.51 1018.97 1019.40 1019.77 1020.07 1020.31 1020.53 1020.75 1021.02 1021.32 1021.65 1021.99 1022.29 1022.54 1022.73 1022.85 1022.94 1023.02 1023.12 1023.24 1023.39 1023.56 1023.72 1023.86 1023.96
1018.56 1018.99 1019.16 1019.04 1018.66 1018.08 1017.41 1016.76 1016.24 1015.93 1015.87 1016.00 1016.29 1016.64 1016.96 1017.19 1017.30 1017.32 1017.28 1017.25 1017.30 1017.46 1017.74 1018.12 1018.55 1018.97 1019.35 1019.66 1019.90 1020.10 1020.30 1020.54 1020.83 1021.18 1021.57 1021.96 1022.31 1022.60 1022.80 1022.94 1023.04 1023.12 1023.22 1023.34 1023.49 1023.66 1023.81 1023.93 1024.01
1018.46 1018.74 1018.77 1018.55 1018.13 1017.59 1017.01 1016.51 1016.16 1016.02 1016.07 1016.28 1016.57 1016.86 1017.09 1017.20 1017.21 1017.15 1017.07 1017.04 1017.12 1017.33 1017.66 1018.07 1018.51 1018.93 1019.27 1019.54 1019.74 1019.92 1020.11 1020.35 1020.68 1021.07 1021.49 1021.92 1022.30 1022.61 1022.83 1022.97 1023.07 1023.15 1023.24 1023.35 1023.49 1023.63 1023.77 1023.87 1023.92
1018.25 1018.41 1018.34 1018.06 1017.64 1017.14 1016.68 1016.32 1016.11 1016.09 1016.23 1016.46 1016.72 1016.93 1017.05 1017.06 1016.97 1016.84 1016.73 1016.71 1016.82 1017.08 1017.47 1017.93 1018.40 1018.83 1019.17 1019.42 1019.61 1019.77 1019.96 1020.21 1020.55 1020.95 1021.40 1021.84 1022.23 1022.55 1022.77 1022.90 1022.99 1023.05 1023.13 1023.23 1023.35 1023.49 1023.60 1023.69 1023.73
1018.02 1018.09 1017.95 1017.64 1017.23 1016.80 1016.42 1016.17 1016.07 1016.13 1016.30 1016.52 1016.74 1016.87 1016.89 1016.81 1016.64 1016.46 1016.33 1016.32 1016.47 1016.77 1017.21 1017.71 1018.22 1018.67 1019.03 1019.29 1019.49 1019.65 1019.84 1020.09 1020.42 1020.82 1021.26 1021.69 1022.07 1022.37 1022.58 1022.71 1022.78 1022.84 1022.90 1022.99 1023.11 1023.24 1023.35 1023.43 1023.47
1017.85 1017.87 1017.68 1017.36 1016.96 1016.58 1016.27 1016.08 1016.04 1016.13 1016.31 1016.50 1016.66 1016.73 1016.68 1016.54 1016.32 1016.11 1015.98 1015.98 1016.15 1016.47 1016.93 1017.46 1017.99 1018.46 1018.85 1019.14 1019.35 1019.53 1019.73 1019.97 1020.29 1020.67 1021.08 1021.47 1021.83 1022.10 1022.29 1022.41 1022.48 1022.53 1022.60 1022.69 1022.81 1022.94 1023.06 1023.15 1023.19
1017.83 1017.79 1017.57 1017.25 1016.87 1016.52 1016.24 1016.08 1016.05 1016.13 1016.28 1016.43 1016.55 1016.58 1016.50 1016.33 1016.11 1015.90 1015.77 1015.77 1015.93 1016.24 1016.69 1017.21 1017.74 1018.22 1018.63 1018.95 1019.20 1019.40 1019.61 1019.85 1020.15 1020.49 1020.85 1021.20 1021.51 1021.76 1021.94 1022.05 1022.13 1022.20 1022.28 1022.39 1022.52 1022.66 1022.79 1022.90 1022.95
1017.94 1017.86 1017.64 1017.32 1016.96 1016.61 1016.34 1016.17 1016.11 1016.14 1016.24 1016.36 1016.44 1016.46 1016.40 1016.25 1016.06 1015.88 1015.76 1015.74 1015.87 1016.13 1016.52 1017.00 1017.50 1017.98 1018.40 1018.75 1019.03 1019.27 1019.50 1019.74 1020.01 1020.31 1020.62 1020.92 1021.20 1021.42 1021.59 1021.72 1021.82 1021.92 1022.02 1022.16 1022.30 1022.46 1022.60 1022.71 1022.78
1018.13 1018.04 1017.82 1017.52 1017.18 1016.84 1016.55 1016.33 1016.21 1016.17 1016.20 1016.28 1016.35 1016.39 1016.38 1016.30 1016.18 1016.04 1015.93 1015.90 1015.97 1016.17 1016.47 1016.87 1017.31 1017.77 1018.19 1018.57 1018.89 1019.17 1019.42 1019.66 1019.91 1020.17 1020.43 1020.69 1020.92 1021.13 1021.31 1021.46 1021.59 1021.73 1021.87 1022.03 1022.19 1022.36 1022.50 1022.61 1022.67
1018.32 1018.24 1018.05 1017.79 1017.48 1017.15 1016.83 1016.55 1016.33 1016.20 1016.16 1016.19 1016.26 1016.34 1016.40 1016.43 1016.40 1016.33 1016.26 1016.21 1016.23 1016.34 1016.54 1016.84 1017.22 1017.64 1018.06 1018.46 1018.83 1019.15 1019.42 1019.67 1019.89 1020.11 1020.33 1020.54 1020.75 1020.94 1021.13 1021.31 1021.48 1021.65 1021.83 1022.01 1022.18 1022.34 1022.48 1022.57 1022.61
1018.40 1018.36 1018.25 1018.06 1017.80 1017.48 1017.12 1016.76 1016.44 1016.20 1016.06 1016.04 1016.11 1016.25 1016.41 1016.55 1016.64 1016.68 1016.66 1016.62 1016.59 1016.62 1016.73 1016.94 1017.25 1017.63 1018.05 1018.48 1018.88 1019.24 1019.54 1019.78 1019.99 1020.17 1020.34 1020.51 1020.69 1020.88 1021.07 1021.28 1021.48 1021.68 1021.88 1022.07 1022.24 1022.38 1022.49 1022.56 1022.58
1018.32 1018.36 1018.35 1018.27 1018.07 1017.77 1017.38 1016.93 1016.49 1016.13 1015.88 1015.79 1015.85 1016.04 1016.31 1016.58 1016.82 1016.97 1017.04 1017.04 1017.00 1016.98 1017.02 1017.16 1017.41 1017.76 1018.18 1018.63 1019.07 1019.46 1019.78 1020.02 1020.21 1020.35 1020.47 1020.59 1020.74 1020.91 1021.11 1021.33 1021.56 1021.78 1021.98 1022.16 1022.31 1022.43 1022.51 1022.55 1022.54
1018.04 1018.21 1018.34 1018.38 1018.27 1018.00 1017.57 1017.03 1016.46 1015.95 1015.58 1015.41 1015.45 1015.68 1016.04 1016.45 1016.84 1017.15 1017.33 1017.40 1017.40 1017.37 1017.39 1017.49 1017.71 1018.04 1018.46 1018.93 1019.39 1019.80 1020.13 1020.36 1020.52 1020.61 1020.69 1020.76 1020.87 1021.02 1021.22 1021.44 1021.67 1021.89 1022.08 1022.25 1022.37 1022.45 1022.50 1022.51 1022.49
1017.63 1017.95 1018.24 1018.41 1018.40 1018.15 1017.68 1017.04 1016.33 1015.66 1015.15 1014.88 1014.88 1015.14 1015.59 1016.13 1016.68 1017.15 1017.48 1017.66 1017.73 1017.75 1017.78 1017.88 1018.09 1018.42 1018.84 1019.32 1019.80 1020.21 1020.54 1020.76 1020.88 1020.93 1020.95 1020.98 1021.06 1021.18 1021.35 1021.56 1021.78 1021.99 1022.16 1022.29 1022.38 1022.43 1022.44 1022.44 1022.41
1017.18 1017.65 1018.10 1018.40 1018.47 1018.24 1017.72 1016.97 1016.11 1015.28 1014.62 1014.24 1014.19 1014.45 1014.97 1015.64 1016.34 1016.97 1017.46 1017.79 1017.97 1018.07 1018.14 1018.27 1018.50 1018.83 1019.26 1019.74 1020.21 1020.63 1020.94 1021.13 1021.22 1021.24 1021.22 1021.21 1021.25 1021.35 1021.50 1021.68 1021.88 1022.06 1022.21 1022.30 1022.35 1022.36 1022.36 1022.34 1022.32
1016.80 1017.41 1017.99 1018.39 1018.51 1018.28 1017.70 1016.84 1015.83 1014.85 1014.04 1013.55 1013.43 1013.69 1014.25 1015.02 1015.86 1016.65 1017.30 1017.78 1018.10 1018.29 1018.44 1018.62 1018.87 1019.21 1019.64 1020.11 1020.57 1020.97 1021.26 1021.44 1021.51 1021.50 1021.46 1021.43 1021.44 1021.52 1021.65 1021.81 1021.98 1022.13 1022.23 1022.29 1022.30 1022.28 1022.24 1022.22 1022.20
1016.54 1017.26 1017.93 1018.40 1018.54 1018.28 1017.62 1016.66 1015.52 1014.40 1013.47 1012.87 1012.69 1012.93 1013.52 1014.36 1015.31 1016.24 1017.03 1017.65 1018.10 1018.40 1018.64 1018.86 1019.14 1019.49 1019.91 1020.37 1020.81 1021.19 1021.47 1021.64 1021.70 1021.69 1021.65 1021.62 1021.63 1021.69 1021.80 1021.94 1022.08 1022.19 1022.25 1022.27 1022.24 1022.18 1022.12 1022.09 1022.08
1016.43 1017.21 1017.92 1018.40 1018.52 1018.21 1017.48 1016.43 1015.19 1013.96 1012.94 1012.27 1012.04 1012.25 1012.85 1013.73 1014.76 1015.78 1016.69 1017.43 1017.99 1018.39 1018.70 1018.98 1019.28 1019.64 1020.05 1020.49 1020.91 1021.28 1021.55 1021.72 1021.80 1021.81 1021.80 1021.79 1021.81 1021.88 1021.98 1022.10 1022.20 1022.27 1022.29 1022.25 1022.18 1022.08 1022.00 1021.94 1021.92
1016.39 1017.19 1017.89 1018.33 1018.40 1018.03 1017.24 1016.13 1014.83 1013.56 1012.49 1011.77 1011.51 1011.69 1012.29 1013.18 1014.24 1015.31 1016.30 1017.12 1017.76 1018.25 1018.63 1018.96 1019.29 1019.65 1020.06 1020.48 1020.89 1021.25 1021.53 1021.72 1021.84 1021.89 1021.91 1021.94 1021.99 1022.07 1022.16 1022.26 1022.33 1022.35 1022.32 1022.23 1022.11 1021.97 1021.85 1021.76 1021.71
1016.32 1017.10 1017.74 1018.12 1018.12 1017.70 1016.87 1015.73 1014.43 1013.16 1012.10 1011.38 1011.10 1011.28 1011.85 1012.72 1013.77 1014.85 1015.86 1016.73 1017.44 1017.99 1018.43 1018.80 1019.16 1019.55 1019.95 1020.37 1020.78 1021.15 1021.45 1021.67 1021.83 1021.93 1022.01 1022.08 1022.16 1022.25 1022.33 1022.40 1022.43 1022.40 1022.32 1022.18 1022.01 1021.83 1021.66 1021.53 1021.44
1016.13 1016.84 1017.40 1017.69 1017.62 1017.15 1016.31 1015.20 1013.95 1012.74 1011.74 1011.06 1010.80 1010.96 1011.50 1012.33 1013.33 1014.38 1015.39 1016.27 1017.01 1017.62 1018.11 1018.54 1018.95 1019.36 1019.79 1020.22 1020.64 1021.02 1021.35 1021.61 1021.81 1021.97 1022.09 1022.20 1022.30 1022.39 1022.45 1022.48 1022.47 1022.39 1022.25 1022.06 1021.84 1021.62 1021.41 1021.24 1021.10
1015.71 1016.34 1016.80 1016.99 1016.85 1016.36 1015.55 1014.51 1013.36 1012.27 1011.36 1010.76 1010.54 1010.69 1011.19 1011.95 1012.88 1013.88 1014.84 1015.73 1016.49 1017.15 1017.71 1018.21 1018.69 1019.15 1019.62 1020.08 1020.52 1020.92 1021.27 1021.56 1021.80 1021.99 1022.14 1022.26 1022.36 1022.43 1022.47 1022.46 1022.39 1022.26 1022.07 1021.84 1021.59 1021.33 1021.09 1020.88 1020.70
1015.08 1015.60 1015.94 1016.04 1015.84 1015.35 1014.59 1013.66 1012.65 1011.71 1010.94 1010.44 1010.25 1010.40 1010.85 1011.54 1012.39 1013.31 1014.23 1015.10 1015.90 1016.61 1017.25 1017.85 1018.40 1018.94 1019.47 1019.96 1020.43 1020.85 1021.21 1021.52 1021.77 1021.97 1022.12 1022.24 1022.32 1022.36 1022.35 1022.29 1022.17 1022.00 1021.77 1021.51 1021.24 1020.96 1020.71 1020.47 1020.26
Thickness
5741 5741 5739 5728 5705 5685 5686 5702 5715 5720 5728 5739 5742 5737 5729 5725 5721 5718 5739 5741 5738 5734 5729 5726 5722 5719 5717 5715 5713 5711 5709 5707 5705 5703 5702 5700 5698 5697 5695 5694 5693 5692 5691 5691 5690 5689 5689 5689 5689
5741 5740 5731 5715 5690 5676 5686 5706 5714 5725 5735 5742 5743 5738 5731 5731 5738 5738 5738 5740 5738 5734 5729 5726 5722 5718 5715 5712 5710 5707 5705 5703 5701 5699 5697 5695 5693 5692 5690 5689 5687 5686 5685 5684 5683 5682 5682 5681 5681
5742 5738 5720 5703 5688 5682 5696 5713 5719 5731 5739 5742 5739 5739 5734 5733 5738 5739 5744 5741 5737 5732 5728 5724 5720 5716 5713 5710 5707 5704 5702 5699 5697 5695 5693 5691 5689 5687 5685 5683 5681 5680 5679 5678 5677 5676 5675 5674 5674
5737 5726 5714 5697 5694 5701 5710 5719 5725 5729 5737 5743 5738 5730 5733 5738 5741 5744 5744 5740 5735 5731 5727 5723 5718 5715 5711 5708 5704 5701 5699 5696 5693 5691 5688 5686 5684 5682 5679 5677 5675 5674 5673 5672 5671 5669 5669 5668 5667
5730 5715 5702 5692 5698 5711 5720 5727 5730 5729 5732 5737 5735 5726 5728 5736 5743 5743 5740 5737 5733 5729 5725 5721 5717 5713 5709 5706 5702 5699 5696 5693 5690 5687 5685 5682 5679 5677 5674 5672 5670 5669 5667 5666 5665 5664 5663 5662 5661
5717 5706 5689 5686 5699 5715 5725 5734 5734 5731 5731 5735 5731 5723 5725 5734 5737 5738 5737 5734 5731 5727 5723 5719 5715 5711 5708 5704 5700 5696 5693 5690 5687 5684 5681 5678 5676 5673 5670 5668 5666 5664 5662 5661 5659 5658 5657 5656 5655
5710 5699 5692 5696 5700 5711 5727 5735 5732 5728 5729 5733 5734 5719 5722 5730 5735 5736 5734 5731 5726 5723 5719 5717 5713 5709 5705 5702 5698 5694 5690 5687 5684 5681 5678 5675 5672 5669 5666 5664 5661 5659 5657 5656 5654 5653 5652 5651 5650
5717 5701 5698 5697 5701 5711 5727 5735 5735 5733 5732 5740 5736 5719 5718 5730 5734 5732 5730 5726 5722 5719 5716 5714 5711 5707 5703 5699 5695 5691 5688 5684 5681 5678 5674 5671 5668 5665 5663 5660 5657 5655 5653 5651 5649 5648 5647 5646 5645
5719 5695 5688 5699 5705 5712 5725 5728 5731 5738 5734 5734 5732 5730 5732 5734 5730 5726 5723 5719 5717 5715 5713 5710 5707 5704 5700 5696 5692 5688 5685 5681 5678 5674 5671 5668 5664 5661 5659 5656 5653 5651 5649 5647 5645 5644 5642 5641 5640
5707 5688 5697 5711 5716 5717 5721 5723 5726 5727 5724 5724 5725 5727 5729 5728 5724 5721 5719 5716 5713 5712 5710 5708 5705 5701 5697 5693 5689 5685 5682 5678 5675 5671 5667 5664 5661 5658 5655 5652 5650 5647 5645 5643 5641 5640 5638 5637 5635
5707 5698 5706 5714 5720 5721 5719 5720 5724 5721 5716 5721 5722 5722 5722 5721 5719 5717 5716 5716 5715 5713 5709 5706 5702 5698 5694 5690 5686 5682 5678 5674 5671 5667 5664 5660 5657 5654 5650 5648 5645 5643 5641 5639 5637 5635 5633 5631 5630
5705 5707 5711 5714 5719 5719 5718 5719 5718 5719 5719 5726 5726 5724 5720 5717 5715 5715 5714 5713 5712 5709 5707 5704 5700 5695 5691 5687 5683 5678 5674 5671 5667 5664 5660 5657 5653 5650 5647 5644 5641 5639 5636 5634 5632 5630 5628 5626 5625
5701 5704 5710 5713 5714 5716 5717 5715 5714 5716 5722 5722 5721 5718 5716 5714 5714 5714 5714 5712 5710 5707 5705 5702 5698 5693 5688 5683 5679 5675 5671 5667 5664 5660 5657 5653 5649 5646 5643 5640 5637 5634 5632 5629 5627 5625 5623 5621 5620
5699 5701 5702 5706 5708 5711 5709 5708 5708 5713 5718 5716 5714 5712 5711 5711 5712 5711 5711 5709 5707 5705 5703 5700 5695 5691 5686 5681 5676 5672 5668 5664 5660 5657 5654 5650 5646 5643 5639 5636 5633 5630 5628 5625 5623 5621 5619 5617 5615
5696 5692 5691 5697 5701 5704 5703 5696 5701 5712 5711 5709 5707 5707 5707 5707 5707 5708 5708 5707 5705 5702 5700 5696 5693 5688 5683 5678 5673 5669 5665 5661 5657 5654 5650 5647 5643 5640 5636 5633 5629 5627 5624 5621 5618 5616 5614 5612 5610
5682 5675 5670 5686 5696 5697 5691 5684 5702 5709 5704 5701 5701 5699 5700 5701 5701 5702 5703 5703 5701 5698 5694 5691 5689 5683 5678 5674 5669 5664 5660 5657 5653 5649 5646 5643 5639 5636 5632 5628 5625 5622 5619 5616 5613 5611 5608 5606 5605
5659 5654 5660 5674 5689 5688 5685 5683 5697 5703 5700 5696 5694 5693 5693 5693 5694 5694 5695 5695 5694 5691 5688 5685 5681 5677 5672 5668 5663 5659 5655 5651 5648 5644 5641 5637 5634 5630 5627 5623 5620 5617 5613 5610 5607 5604 5602 5600 5598
5645 5649 5656 5663 5679 5678 5675 5679 5689 5693 5693 5691 5689 5687 5686 5686 5686 5687 5687 5686 5686 5684 5681 5678 5674 5669 5665 5660 5656 5651 5648 5644 5641 5638 5635 5631 5627 5624 5621 5617 5614 5610 5607 5603 5600 5597 5595 5593 5591
5650 5649 5649 5659 5672 5669 5668 5675 5684 5688 5685 5684 5682 5680 5680 5680 5680 5679 5678 5677 5676 5674 5672 5669 5665 5661 5658 5653 5648 5643 5638 5636 5633 5631 5628 5624 5621 5617 5614 5610 5606 5603 5599 5596 5593 5590 5587 5585 5583
5644 5641 5645 5655 5665 5663 5662 5669 5682 5684 5685 5687 5684 5680 5677 5674 5672 5671 5670 5668 5667 5665 5663 5660 5658 5654 5651 5647 5642 5637 5632 5628 5625 5622 5620 5617 5613 5610 5606 5602 5599 5595 5592 5588 5585 5582 5578 5576 5573
5637 5637 5642 5645 5652 5656 5654 5658 5673 5683 5686 5686 5684 5681 5676 5674 5669 5665 5662 5660 5657 5656 5654 5654 5650 5647 5644 5640 5634 5628 5623 5619 5615 5612 5610 5608 5605 5602 5598 5594 5591 5587 5584 5580 5577 5574 5570 5566 5564
5629 5642 5642 5642 5635 5629 5639 5630 5662 5672 5676 5677 5675 5671 5669 5668 5664 5659 5656 5652 5650 5648 5646 5645 5642 5639 5635 5632 5627 5621 5615 5610 5607 5603 5600 5598 5596 5593 5589 5586 5582 5578 5575 5571 5568 5565 5561 5558 5554
5633 5642 5639 5636 5628 5621 5627 5622 5649 5663 5665 5670 5669 5667 5665 5663 5659 5655 5651 5647 5643 5640 5637 5635 5633 5630 5627 5623 5618 5613 5607 5602 5598 5594 5591 5588 5585 5583 5580 5576 5573 5569 5565 5562 5559 5556 5552 5548 5545
5634 5629 5623 5612 5608 5604 5621 5613 5631 5655 5667 5671 5668 5664 5661 5657 5653 5649 5644 5640 5636 5631 5629 5626 5624 5621 5617 5614 5609 5604 5599 5594 5589 5585 5581 5578 5575 5572 5569 5566 5563 5559 5556 5552 5549 5546 5543 5539 5536
5622 5607 5593 5593 5587 5598 5620 5615 5635 5668 5674 5674 5671 5664 5658 5653 5648 5643 5638 5634 5629 5624 5621 5618 5615 5611 5608 5604 5600 5595 5590 5585 5581 5577 5572 5568 5564 5561 5559 5556 5552 5549 5546 5543 5540 5536 5533 5529 5526
5609 5605 5588 5583 5584 5598 5616 5613 5644 5669 5673 5675 5671 5663 5653 5647 5644 5640 5635 5630 5624 5619 5615 5611 5607 5603 5599 5595 5591 5586 5582 5577 5572 5568 5563 5559 5555 5552 5549 5546 5542 5539 5536 5533 5530 5526 5523 5520 5516
5602 5598 5604 5591 5589 5588 5602 5621 5645 5666 5665 5663 5659 5652 5648 5643 5639 5636 5630 5625 5619 5614 5609 5604 5600 5596 5591 5586 5582 5577 5572 5568 5563 5558 5554 5550 5546 5542 5539 5536 5532 5529 5526 5523 5519 5516 5512 5509 5505
5610 5604 5590 5582 5574 5576 5594 5611 5629 5650 5654 5652 5649 5647 5644 5639 5634 5630 5626 5621 5615 5609 5603 5598 5593 5588 5583 5578 5573 5568 5563 5558 5553 5548 5544 5540 5536 5532 5529 5525 5522 5518 5515 5512 5508 5505 5502 5498 5495
5599 5597 5593 5583 5580 5576 5582 5607 5640 5645 5649 5647 5646 5645 5642 5637 5633 5628 5623 5617 5610 5602 5596 5590 5585 5579 5574 5568 5563 5558 5552 5547 5543 5538 5533 5529 5525 5521 5518 5514 5511 5507 5504 5501 5497 5494 5490 5487 5484
5601 5599 5591 5580 5581 5581 5580 5604 5643 5643 5645 5644 5642 5640 5638 5635 5631 5625 5618 5610 5602 5596 5589 5583 5577 5571 5565 5559 5553 5547 5542 5537 5531 5527 5523 5518 5514 5511 5507 5504 5500 5497 5494 5490 5486 5483 5480 5475 5472